CW0736 Weather Reports


Display with metric or nautical units.
time (UTC)temp
F
wind
direction
speed
MPH
gust
MPH
rain 1hr
in
rain 24hr
in
rain mn
in
humidity
%
barometer
mb
20260502130555 41 250 1.0 5.0 0.00 0.06 0.00 77 1016.9
20260502123600 40 246 1.0 3.0 0.00 0.06 0.00 81 1016.8
20260502123502 39 246 1.0 3.0 0.00 0.06 0.00 81 1016.9
20260502123028 39 246 0.0 3.0 0.00 0.06 0.00 82 1016.9
20260502122544 39 246 1.0 3.0 0.00 0.06 0.00 82 1016.9
20260502122100 38 252 1.0 4.0 0.00 0.06 0.00 83 1016.9
20260502122002 38 252 1.0 4.0 0.00 0.06 0.00 83 1017.0
20260502121515 38 259 2.0 4.0 0.00 0.06 0.00 84 1017.0
20260502121029 38 257 1.0 3.0 0.00 0.06 0.00 85 1017.0
20260502120542 37 259 0.0 3.0 0.00 0.06 0.00 86 1016.8
20260502115516 36 257 1.0 3.0 0.00 0.06 0.00 87 1016.9
20260502115036 36 267 1.0 3.0 0.00 0.06 0.00 87 1016.9
20260502114607 36 242 1.0 5.0 0.00 0.06 0.00 87 1017.0
20260502114014 35 238 1.0 4.0 0.00 0.06 0.00 87 1017.0
20260502113538 35 255 1.0 4.0 0.00 0.06 0.00 88 1017.0
20260502113055 35 247 1.0 4.0 0.00 0.06 0.00 88 1017.1
20260502112513 35 260 2.0 4.0 0.00 0.06 0.00 88 1017.0
20260502112036 35 270 2.0 4.0 0.00 0.06 0.00 88 1016.9
20260502111554 35 265 1.0 6.0 0.00 0.06 0.00 88 1016.9
20260502111006 34 242 1.0 4.0 0.00 0.06 0.00 89 1016.9
20260502110519 34 281 1.0 3.0 0.00 0.06 0.00 89 1016.9
20260502110037 34 268 1.0 3.0 0.00 0.06 0.00 89 1016.8
20260502105552 34 256 1.0 3.0 0.00 0.06 0.00 89 1016.8
20260502105011 34 252 1.0 2.0 0.00 0.06 0.00 89 1016.7
20260502104546 34 255 1.0 2.0 0.00 0.06 0.00 89 1016.6
20260502104057 34 255 0.0 3.0 0.00 0.06 0.00 89 1016.5
20260502103514 34 255 1.0 3.0 0.00 0.06 0.00 89 1016.6
20260502103037 34 261 1.0 2.0 0.00 0.06 0.00 89 1016.6
20260502102550 34 263 0.0 2.0 0.00 0.06 0.00 89 1016.4
20260502102010 34 277 0.0 2.0 0.00 0.06 0.00 89 1016.4
20260502101552 34 277 1.0 2.0 0.00 0.06 0.00 89 1016.3
20260502101051 34 319 0.0 1.0 0.00 0.06 0.00 89 1016.3
20260502100511 34 319 0.0 2.0 0.00 0.06 0.00 89 1016.3
20260502091523 35 319 0.0 1.0 0.00 0.06 0.00 87 1016.1
20260502091034 35 319 0.0 1.0 0.00 0.06 0.00 87 1016.1
20260502090511 35 319 0.0 1.0 0.00 0.06 0.00 87 1016.0
20260502071534 37 355 0.0 1.0 0.00 0.06 0.00 83 1015.2
20260502071051 38 355 0.0 1.0 0.00 0.06 0.00 83 1015.2
20260502070507 38 355 0.0 2.0 0.00 0.06 0.00 83 1015.2
20260502070049 38 355 0.0 2.0 0.00 0.06 0.00 83 1015.2
20260502065548 38 5 0.0 2.0 0.00 0.06 0.00 83 1015.2
20260502065007 38 5 0.0 1.0 0.00 0.06 0.00 84 1015.4
20260502064525 38 5 0.0 1.0 0.00 0.06 0.00 84 1015.3
20260502064049 38 5 0.0 1.0 0.00 0.06 0.00 83 1015.3
20260502063511 38 5 0.0 1.0 0.00 0.06 0.00 83 1015.3
20260502063038 39 5 0.0 1.0 0.00 0.06 0.00 83 1015.3
20260502062550 39 5 0.0 3.0 0.00 0.06 0.00 83 1015.3
20260502062004 39 340 0.0 2.0 0.00 0.06 0.00 83 1015.2
20260502061515 39 333 0.0 2.0 0.00 0.06 0.00 84 1015.4
20260502061035 39 327 0.0 2.0 0.00 0.06 0.00 85 1015.5
20260502060549 40 5 0.0 3.0 0.00 0.06 0.00 86 1015.3
20260502060010 40 5 1.0 3.0 0.00 0.06 0.00 86 1015.3
20260502055523 40 290 0.0 2.0 0.00 0.06 0.00 86 1015.3
20260502055045 40 286 0.0 2.0 0.00 0.06 0.00 87 1015.2
20260502054559 40 276 0.0 3.0 0.00 0.06 0.00 88 1015.1
20260502054039 40 244 0.0 3.0 0.00 0.06 0.00 88 1015.0
20260502053557 40 277 0.0 2.0 0.00 0.06 0.00 89 1014.9
20260502053017 40 284 0.0 2.0 0.00 0.06 0.00 89 1014.9
20260502052540 40 303 0.0 2.0 0.00 0.06 0.00 89 1014.8
20260502052101 40 303 0.0 2.0 0.00 0.06 0.00 89 1015.0
20260502051519 40 303 0.0 1.0 0.00 0.06 0.00 89 1015.0
20260502051033 40 303 0.0 1.0 0.00 0.06 0.00 89 1014.9
20260502050548 40 303 0.0 1.0 0.00 0.06 0.00 89 1015.0
20260502050008 39 303 0.0 0.0 0.00 0.06 0.00 89 1015.0
20260502045530 40 303 0.0 0.0 0.00 0.06 0.00 90 1014.9
20260502045046 40 303 0.0 1.0 0.00 0.06 0.00 90 1015.0
20260502044510 39 303 0.0 1.0 0.00 0.06 0.00 90 1015.0
20260502044021 39 303 0.0 0.0 0.00 0.06 0.00 89 1015.0
20260502043505 39 303 0.0 0.0 0.00 0.06 0.00 89 1015.0
20260502043025 40 303 0.0 0.0 0.00 0.06 0.00 89 1014.9
20260502042543 40 303 0.0 0.0 0.00 0.06 0.00 89 1015.0
20260502042003 40 303 0.0 0.0 0.00 0.06 0.00 89 1015.0
20260502041519 40 303 0.0 0.0 0.00 0.06 0.00 89 1015.0
20260502041042 40 303 0.0 0.0 0.00 0.06 0.00 89 1015.0
20260502040506 40 303 0.0 0.0 0.00 0.06 0.00 89 1015.1
20260502040022 40 303 0.0 0.0 0.00 0.06 0.06 89 1015.1
20260502035534 40 303 0.0 1.0 0.00 0.06 0.06 89 1015.1
20260502035046 40 303 0.0 1.0 0.00 0.06 0.06 89 1015.0
20260502034558 40 303 0.0 0.0 0.00 0.06 0.06 89 1015.0
20260502034015 40 303 0.0 0.0 0.00 0.06 0.06 89 1015.0
20260502033534 40 303 0.0 0.0 0.00 0.06 0.06 89 1015.0
20260502033050 40 303 0.0 1.0 0.00 0.06 0.06 89 1015.0
20260502032510 40 303 0.0 1.0 0.00 0.06 0.06 89 1015.0
20260502032034 40 303 0.0 1.0 0.00 0.06 0.06 88 1015.0
20260502031552 40 303 0.0 2.0 0.00 0.06 0.06 88 1015.0
20260502031014 41 303 0.0 2.0 0.00 0.06 0.06 89 1015.1
20260502030526 41 223 0.0 1.0 0.00 0.06 0.06 89 1015.2
20260502030004 41 223 0.0 1.0 0.00 0.06 0.06 90 1015.1
20260502025526 41 223 0.0 1.0 0.00 0.06 0.06 90 1015.1
20260502025046 41 223 0.0 2.0 0.00 0.06 0.06 91 1015.1
20260502024535 41 223 0.0 2.0 0.00 0.06 0.06 91 1015.0
20260502024048 41 208 0.0 1.0 0.00 0.06 0.06 91 1014.9
20260502023508 40 208 0.0 0.0 0.00 0.06 0.06 91 1015.0
20260502023026 40 208 0.0 0.0 0.00 0.06 0.06 90 1014.9
20260502022548 40 208 0.0 0.0 0.00 0.06 0.06 90 1014.8
20260502022007 41 208 0.0 0.0 0.00 0.06 0.06 90 1014.9
20260502021520 41 208 0.0 0.0 0.00 0.06 0.06 90 1014.9
20260502021044 41 208 0.0 0.0 0.00 0.06 0.06 90 1014.9
20260502020512 41 208 0.0 0.0 0.00 0.06 0.06 90 1014.8
20260502015508 41 208 0.0 0.0 0.00 0.06 0.06 90 1014.8
20260502015030 41 208 0.0 0.0 0.00 0.06 0.06 90 1014.7
20260502014550 41 208 0.0 0.0 0.00 0.06 0.06 90 1014.7
20260502014033 41 208 0.0 0.0 0.00 0.06 0.06 90 1014.6
20260502013551 41 208 0.0 0.0 0.00 0.06 0.06 90 1014.7
20260502013012 41 208 0.0 0.0 0.00 0.06 0.06 90 1014.6
20260502012536 41 208 0.0 0.0 0.00 0.06 0.06 89 1014.5
20260502012054 41 208 0.0 0.0 0.00 0.06 0.06 89 1014.5
20260502011521 42 208 0.0 0.0 0.00 0.06 0.06 89 1014.4
20260502011037 42 208 0.0 0.0 0.00 0.06 0.06 89 1014.2
20260502010555 42 208 0.0 0.0 0.00 0.06 0.06 89 1014.2
20260502010018 42 208 0.0 0.0 0.00 0.06 0.06 89 1014.1
20260502005542 42 208 0.0 0.0 0.00 0.06 0.06 89 1014.0
20260502005100 42 208 0.0 0.0 0.00 0.06 0.06 89 1013.9
20260502005002 42 208 0.0 0.0 0.00 0.06 0.06 89 1013.9
20260502004529 42 208 0.0 0.0 0.00 0.06 0.06 89 1013.8
20260502004042 42 208 0.0 0.0 0.00 0.06 0.06 89 1013.8
20260502003555 43 208 0.0 0.0 0.00 0.06 0.06 89 1013.7
20260502003011 43 208 0.0 0.0 0.00 0.06 0.06 88 1013.7
20260502002534 43 208 0.0 0.0 0.00 0.06 0.06 88 1013.6
20260502002050 43 208 0.0 0.0 0.00 0.06 0.06 88 1013.6
20260502001508 43 208 0.0 0.0 0.00 0.06 0.06 88 1013.5
20260502001031 43 208 0.0 0.0 0.00 0.06 0.06 88 1013.6
20260502000547 43 208 0.0 0.0 0.00 0.06 0.06 88 1013.4
20260502000007 44 208 0.0 0.0 0.00 0.06 0.06 88 1013.5
20260501235533 44 208 0.0 0.0 0.00 0.06 0.06 88 1013.4
20260501235049 44 208 0.0 0.0 0.00 0.06 0.06 88 1013.4
20260501234511 44 208 0.0 0.0 0.00 0.06 0.06 88 1013.5
20260501234033 44 208 0.0 1.0 0.00 0.06 0.06 88 1013.3
20260501233546 44 208 0.0 1.0 0.00 0.06 0.06 88 1013.3
20260501233028 44 208 0.0 1.0 0.00 0.06 0.06 88 1013.3
20260501232544 44 208 0.0 1.0 0.00 0.06 0.06 88 1013.4
20260501232057 44 208 0.0 0.0 0.00 0.06 0.06 88 1013.2
20260501231540 44 208 0.0 1.0 0.00 0.06 0.06 88 1013.3
20260501231059 44 208 0.0 2.0 0.00 0.06 0.06 88 1013.3
20260501230525 44 208 0.0 2.0 0.00 0.06 0.06 88 1013.3
20260501230040 44 208 0.0 2.0 0.00 0.06 0.06 88 1013.3
20260501225558 44 210 0.0 1.0 0.01 0.06 0.06 88 1013.3
20260501225017 44 210 0.0 2.0 0.01 0.06 0.06 87 1013.4
20260501224538 44 223 0.0 2.0 0.01 0.06 0.06 88 1013.3
20260501224055 44 213 0.0 1.0 0.01 0.06 0.06 88 1013.3
20260501223515 44 213 0.0 2.0 0.01 0.06 0.06 88 1013.4
20260501223032 44 213 0.0 2.0 0.01 0.06 0.06 89 1013.4
20260501222551 44 213 0.0 2.0 0.01 0.06 0.06 89 1013.4
20260501222006 44 213 0.0 2.0 0.01 0.06 0.06 88 1013.4
20260501221530 44 219 0.0 3.0 0.01 0.06 0.06 88 1013.4
20260501221047 44 161 0.0 3.0 0.01 0.06 0.06 88 1013.4
20260501220509 44 192 0.0 3.0 0.01 0.06 0.06 88 1013.5
20260501220100 44 192 0.0 3.0 0.01 0.06 0.06 88 1013.5
20260501215552 44 191 0.0 3.0 0.00 0.05 0.05 88 1013.5
20260501215011 44 190 0.0 3.0 0.00 0.05 0.05 88 1013.4
20260501214536 44 170 1.0 2.0 0.00 0.05 0.05 89 1013.4
20260501214051 43 184 0.0 2.0 0.00 0.05 0.05 88 1013.3
20260501213505 43 182 1.0 2.0 0.00 0.05 0.05 88 1013.4
20260501213027 43 182 0.0 1.0 0.00 0.05 0.05 88 1013.5
20260501212543 43 182 0.0 3.0 0.01 0.05 0.05 88 1013.5
20260501212102 43 182 0.0 3.0 0.01 0.05 0.05 88 1013.5
20260501212002 43 182 1.0 3.0 0.01 0.05 0.05 88 1013.5
20260501211529 43 130 0.0 2.0 0.01 0.05 0.05 88 1013.5
20260501211046 43 81 0.0 2.0 0.01 0.05 0.05 88 1013.4
20260501210507 43 71 0.0 1.0 0.01 0.05 0.05 88 1013.4
20260501210032 43 71 0.0 2.0 0.01 0.05 0.05 88 1013.4
20260501205550 43 69 0.0 2.0 0.01 0.05 0.05 89 1013.5
20260501205010 43 36 0.0 1.0 0.02 0.05 0.05 88 1013.5
20260501204522 43 35 0.0 2.0 0.02 0.05 0.05 89 1013.5
20260501204039 43 35 0.0 2.0 0.03 0.05 0.05 88 1013.6
20260501203555 43 36 1.0 2.0 0.03 0.05 0.05 88 1013.5
20260501203015 42 59 0.0 1.0 0.03 0.05 0.05 89 1013.6
20260501202537 42 59 0.0 1.0 0.02 0.04 0.04 88 1013.6
20260501202055 42 59 0.0 2.0 0.02 0.04 0.04 88 1013.6
20260501201522 42 59 0.0 2.0 0.03 0.04 0.04 88 1013.6
20260501201036 42 51 1.0 2.0 0.03 0.04 0.04 88 1013.6
20260501200558 42 62 0.0 2.0 0.03 0.04 0.04 88 1013.6
20260501200037 42 136 0.0 3.0 0.03 0.04 0.04 88 1013.6
20260501195559 42 144 0.0 3.0 0.04 0.04 0.04 88 1013.6
20260501195045 42 28 0.0 2.0 0.03 0.03 0.03 88 1013.6
20260501194504 42 28 0.0 3.0 0.03 0.03 0.03 87 1013.9
20260501194013 42 28 0.0 3.0 0.02 0.02 0.02 87 1013.7
20260501193527 42 351 0.0 3.0 0.02 0.02 0.02 86 1013.9
20260501193005 42 32 1.0 3.0 0.02 0.02 0.02 86 1013.9
20260501192527 42 12 1.0 3.0 0.02 0.02 0.02 85 1013.9
20260501192003 42 43 0.0 5.0 0.01 0.01 0.02 85 1014.0
20260501191525 43 49 2.0 5.0 0.01 0.01 0.01 84 1013.9
20260501191003 43 15 0.0 4.0 0.01 0.01 0.01 85 1013.8
20260501190532 43 35 1.0 4.0 0.01 0.01 0.01 84 1014.0
20260501190042 43 14 0.0 2.0 0.01 0.01 0.01 84 1013.9
20260501185553 43 32 0.0 2.0 0.00 0.00 0.00 84 1014.1
20260501185011 43 32 0.0 3.0 0.00 0.00 0.00 83 1014.1
20260501184535 43 348 1.0 3.0 0.00 0.00 0.00 83 1014.1
20260501184049 43 23 0.0 2.0 0.00 0.00 0.00 82 1014.1
20260501183527 43 22 0.0 2.0 0.00 0.00 0.00 82 1014.2
20260501183057 43 28 0.0 2.0 0.00 0.00 0.00 81 1014.2
20260501182530 44 28 0.0 2.0 0.00 0.00 0.00 81 1014.0
20260501182019 44 10 0.0 2.0 0.00 0.00 0.00 79 1014.1
20260501181557 44 360 0.0 2.0 0.00 0.00 0.00 79 1014.1
20260501181057 44 360 1.0 2.0 0.00 0.00 0.00 79 1014.1
20260501180515 44 332 0.0 2.0 0.00 0.00 0.00 78 1014.1
20260501180029 44 351 0.0 3.0 0.00 0.00 0.00 78 1014.1
20260501175515 45 350 0.0 3.0 0.00 0.00 0.00 78 1014.1
20260501175040 45 254 0.0 1.0 0.00 0.00 0.00 77 1014.1
20260501174556 45 254 0.0 1.0 0.00 0.00 0.00 76 1014.0
20260501174014 45 254 0.0 1.0 0.00 0.00 0.00 75 1013.9
20260501173528 45 254 0.0 2.0 0.00 0.00 0.00 74 1014.0
20260501173012 45 254 0.0 2.0 0.00 0.00 0.00 75 1014.0
20260501172534 45 256 1.0 2.0 0.00 0.00 0.00 74 1014.1
20260501172050 46 265 1.0 3.0 0.00 0.00 0.00 74 1014.1
20260501171516 46 254 1.0 4.0 0.00 0.00 0.00 72 1014.1
20260501171037 46 253 1.0 4.0 0.00 0.00 0.00 71 1014.1
20260501170552 47 188 1.0 2.0 0.00 0.00 0.00 71 1014.1
20260501170044 47 29 0.0 2.0 0.00 0.00 0.00 70 1014.1
20260501165557 47 37 0.0 2.0 0.00 0.00 0.00 71 1014.0
20260501165019 47 37 0.0 3.0 0.00 0.00 0.00 69 1014.1
20260501164503 47 42 1.0 3.0 0.00 0.00 0.00 68 1014.1
20260501164044 47 15 0.0 3.0 0.00 0.00 0.00 68 1014.0
20260501163506 48 9 0.0 3.0 0.00 0.00 0.00 66 1014.0
20260501163040 48 351 1.0 3.0 0.00 0.00 0.00 64 1014.0
20260501162552 48 28 0.0 3.0 0.00 0.00 0.00 61 1014.0
20260501162017 48 32 1.0 4.0 0.00 0.00 0.00 62 1014.0
20260501161538 48 15 0.0 4.0 0.00 0.00 0.00 66 1014.1
20260501161058 48 9 2.0 4.0 0.00 0.00 0.00 63 1014.0
20260501160514 48 267 1.0 5.0 0.00 0.00 0.00 61 1014.2
20260501160054 48 269 1.0 5.0 0.00 0.00 0.00 63 1014.2
20260501155557 47 249 1.0 3.0 0.00 0.00 0.00 66 1014.1
20260501155022 47 156 1.0 4.0 0.00 0.00 0.00 66 1014.3
20260501154540 48 184 1.0 4.0 0.00 0.00 0.00 67 1014.3
20260501154024 48 152 1.0 4.0 0.00 0.00 0.00 65 1014.4
20260501153545 48 248 0.0 3.0 0.00 0.00 0.00 64 1014.3
20260501153006 48 217 1.0 3.0 0.00 0.00 0.00 60 1014.2
20260501152531 48 275 0.0 3.0 0.00 0.00 0.00 62 1014.3
20260501152048 48 269 1.0 3.0 0.00 0.00 0.00 61 1014.3
20260501151504 49 237 0.0 3.0 0.00 0.00 0.00 62 1014.4
20260501151026 49 17 0.0 3.0 0.00 0.00 0.00 62 1014.4
20260501150507 49 251 1.0 3.0 0.00 0.00 0.00 61 1014.3
20260501150044 49 251 1.0 3.0 0.00 0.00 0.00 62 1014.3
20260501145544 49 186 1.0 5.0 0.00 0.00 0.00 65 1014.3
20260501145004 48 165 0.0 3.0 0.00 0.00 0.00 63 1014.2
20260501144526 48 180 1.0 3.0 0.00 0.00 0.00 61 1014.2
20260501144044 48 201 0.0 3.0 0.00 0.00 0.00 62 1014.2
20260501143503 48 333 1.0 2.0 0.00 0.00 0.00 62 1014.3
20260501143031 48 342 0.0 2.0 0.00 0.00 0.00 63 1014.4